Regional Weather Roundup
Issued by NWS

Home | Current Version | Previous Version | Graphics & Text | Print | Product List | Glossary On
Versions: 1 2 3 4 5 6 7 8 9 10 11 12 13 14 15 16 17 18 19 20 21 22 23 24 25 26 27 28 29 30 31 32 33 34 35 36 37 38 39 40 41 42 43 44 45 46 47 48 49 50
000
ASUS45 KSLC 290710
RWRUT

UTAH REGIONAL WEATHER ROUNDUP
NATIONAL WEATHER SERVICE SALT LAKE CITY UT
100 AM MDT FRI JUL 29 2016

UTZ001>011-023>025-290800-

NORTHERN UTAH

CITY           SKY/WX    TMP DP  RH WIND       PRES   REMARKS
BRIGHAM CITY     N/A     74  37  26 CALM      30.05S
HILL AFB       CLEAR     76  37  25 SE14      30.08S
LOGAN          CLEAR     61  48  62 E3        30.07S
OGDEN          CLEAR     75  38  26 S7        30.05S
PROVO AIRPORT  CLEAR     70  39  32 SE3       30.07S
SALT LAKE CITY PTCLDY    76  44  32 SW7       30.03S
VERNAL         CLEAR     74  30  19 N10       30.12R
WENDOVER       CLEAR     79  36  21 CALM      30.06S
HEBER CITY     CLEAR     59  37  44 CALM      30.17S
WEST JORDAN    CLEAR     79  39  24 CALM      30.08S

$$

UTZ012>022-026-027-290800-

SOUTHERN/CENTRAL UTAH

CITY           SKY/WX    TMP DP  RH WIND       PRES   REMARKS
BLANDING       MOCLDY    76  30  18 NE10      30.20F
BRYCE CANYON   PTCLDY    62  37  39 CALM      30.35F
CEDAR CITY     CLEAR     78  38  23 SE7       30.16F
DELTA          PTCLDY    79  32  18 NE5       30.05S
MILFORD        CLEAR     78  39  24 S13       30.09R
MOAB/CYNLANDS  CLEAR     79  27  14 CALM      30.00R
PRICE          CLEAR     72  26  18 N12       30.17S
ST GEORGE      SUNNY     93  45  18 CALM      29.94R

$$

REGIONAL REPORTS     COLORADO/ARIZONA

CITY           SKY/WX    TMP DP  RH WIND       PRES   REMARKS
CRAIG, CO      CLEAR     58  35  42 CALM      30.18R
GRAND JUNCTION CLEAR     74  30  19 SE5       30.04R
RIFLE          CLEAR     69  32  25 E6        30.13R
MONTROSE       CLEAR     72  34  24 SE8       30.14S
CORTEZ         PTCLDY    68  41  37 E5        30.16R
PAGE, AZ       CLEAR     90  39  16 NW6       30.00F
GRAND CANYON   PTCLDY    59  49  69 E5        30.28F
KINGMAN        PTCLDY    82  46  28 SE7       29.99R
FLAGSTAFF      PTCLDY    69  41  36 VRB3      30.29F

$$

REGIONAL REPORTS    NEVADA/IDAHO/WYOMING

CITY           SKY/WX    TMP DP  RH WIND       PRES   REMARKS
LAS VEGAS, NV  CLOUDY   100  46  16 VRB5      29.81F HX  96
ELY            PTCLDY    71  32  23 S12       30.22R
ELKO           CLEAR     78  33  19 E5        30.11R
POCATELLO, ID  CLEAR     78  32  18 SW14      30.04F
BURLEY         CLEAR     68  44  42 S5        30.02S
EVANSTON, WY   CLEAR     65  28  24 SE8       30.29F
ROCK SPRINGS   CLEAR     64  42  44 NE14      30.27S
KEMMERER         N/A    N/A N/A N/A NE9       30.32S

$$



USA.gov is the U.S. government's official web portal to all federal, state and local government web resources and services.